Time,TemperatureF,DewpointF,PressureIn,WindDirection,WindDirectionDegrees,WindSpeedMPH,WindSpeedGustMPH,Humidity,HourlyPrecipIn,Conditions,Clouds,dailyrainin,SoftwareType,DateUTC
2013-05-10 00:03:00,57.0,37.0,29.93,SE,138,4.0,12.1,47,0.00,,,0.00,meteobridge,2013-05-10 06:03:00,
2013-05-10 00:08:00,57.0,37.0,29.93,SSE,155,2.9,8.1,47,0.00,,,0.00,meteobridge,2013-05-10 06:08:00,
2013-05-10 00:13:00,56.8,37.4,29.93,East,83,4.9,8.9,48,0.00,,,0.00,meteobridge,2013-05-10 06:13:00,
2013-05-10 00:18:00,56.8,36.9,29.93,ESE,123,11.0,11.0,47,0.00,,,0.00,meteobridge,2013-05-10 06:18:00,
2013-05-10 00:23:00,56.8,36.9,29.93,SE,126,6.0,8.1,47,0.00,,,0.00,meteobridge,2013-05-10 06:23:00,
2013-05-10 00:28:00,56.8,36.9,29.93,SE,124,4.9,8.1,47,0.00,,,0.00,meteobridge,2013-05-10 06:28:00,
2013-05-10 00:33:00,56.8,37.4,29.93,East,97,4.9,10.1,48,0.00,,,0.00,meteobridge,2013-05-10 06:33:00,
2013-05-10 00:38:00,56.7,37.2,29.92,ESE,121,2.9,6.9,48,0.00,,,0.00,meteobridge,2013-05-10 06:38:00,
2013-05-10 00:44:00,56.7,37.2,29.92,East,84,0.0,6.0,48,0.00,,,0.00,meteobridge,2013-05-10 06:44:00,
2013-05-10 00:49:00,56.7,37.2,29.91,ENE,68,0.9,4.9,48,0.00,,,0.00,meteobridge,2013-05-10 06:49:00,
2013-05-10 00:54:00,56.8,36.9,29.91,East,98,2.0,2.9,47,0.00,,,0.00,meteobridge,2013-05-10 06:54:00,
2013-05-10 00:59:00,56.8,36.9,29.91,East,101,4.9,4.9,47,0.00,,,0.00,meteobridge,2013-05-10 06:59:00,
2013-05-10 01:04:00,56.8,37.4,29.91,ESE,104,0.0,2.0,48,0.00,,,0.00,meteobridge,2013-05-10 07:04:00,
2013-05-10 01:09:00,56.8,36.9,29.91,ESE,105,0.0,0.0,47,0.00,,,0.00,meteobridge,2013-05-10 07:09:00,
2013-05-10 01:14:00,56.7,37.2,29.91,ESE,105,0.0,0.0,48,0.00,,,0.00,meteobridge,2013-05-10 07:14:00,
2013-05-10 01:19:00,56.5,38.1,29.91,ESE,105,0.0,0.0,50,0.00,,,0.00,meteobridge,2013-05-10 07:19:00,
2013-05-10 01:24:00,56.1,37.2,29.91,ESE,105,0.0,0.0,49,0.00,,,0.00,meteobridge,2013-05-10 07:24:00,
2013-05-10 01:30:00,56.3,36.9,29.91,ESE,105,0.0,0.0,48,0.00,,,0.00,meteobridge,2013-05-10 07:30:00,
2013-05-10 01:35:00,56.1,36.7,29.91,ESE,105,0.0,0.0,48,0.00,,,0.00,meteobridge,2013-05-10 07:35:00,
2013-05-10 01:40:00,55.9,37.0,29.91,ESE,105,0.0,0.0,49,0.00,,,0.00,meteobridge,2013-05-10 07:40:00,
2013-05-10 01:45:00,55.2,36.9,29.90,ESE,105,0.0,0.0,50,0.00,,,0.00,meteobridge,2013-05-10 07:45:00,
2013-05-10 01:51:00,55.0,36.1,29.90,ESE,105,0.0,0.0,49,0.00,,,0.00,meteobridge,2013-05-10 07:51:00,
2013-05-10 01:56:00,55.0,36.7,29.90,SE,126,0.0,4.0,50,0.00,,,0.00,meteobridge,2013-05-10 07:56:00,
2013-05-10 02:01:00,55.6,37.2,29.90,SSE,150,2.9,4.9,50,0.00,,,0.00,meteobridge,2013-05-10 08:01:00,
2013-05-10 02:06:00,55.9,36.5,29.90,ESE,120,2.0,6.9,48,0.00,,,0.00,meteobridge,2013-05-10 08:06:00,
2013-05-10 02:11:00,56.1,36.1,29.90,ESE,102,0.9,4.0,47,0.00,,,0.00,meteobridge,2013-05-10 08:11:00,
2013-05-10 02:16:00,56.5,36.0,29.90,ESE,119,2.9,2.9,46,0.00,,,0.00,meteobridge,2013-05-10 08:16:00,
2013-05-10 02:21:00,56.7,35.6,29.90,ESE,111,4.0,6.0,45,0.00,,,0.00,meteobridge,2013-05-10 08:21:00,
2013-05-10 02:26:00,56.8,35.8,29.90,SE,132,2.0,4.9,45,0.00,,,0.00,meteobridge,2013-05-10 08:26:00,
2013-05-10 02:31:00,56.8,35.8,29.90,ESE,118,4.9,6.9,45,0.00,,,0.00,meteobridge,2013-05-10 08:31:00,
2013-05-10 02:36:00,56.8,35.8,29.90,SE,132,2.9,4.0,45,0.00,,,0.00,meteobridge,2013-05-10 08:36:00,
2013-05-10 02:41:00,57.0,36.0,29.91,ENE,62,0.9,8.9,45,0.00,,,0.00,meteobridge,2013-05-10 08:41:00,
2013-05-10 02:46:00,57.0,36.0,29.91,ESE,113,4.9,6.9,45,0.00,,,0.00,meteobridge,2013-05-10 08:46:00,
2013-05-10 02:51:00,56.8,35.8,29.91,SE,127,4.9,8.1,45,0.00,,,0.00,meteobridge,2013-05-10 08:51:00,
2013-05-10 02:56:00,56.8,35.8,29.91,SE,128,2.9,4.9,45,0.00,,,0.00,meteobridge,2013-05-10 08:56:00,
2013-05-10 03:02:00,56.8,35.8,29.91,ESE,116,6.9,8.9,45,0.00,,,0.00,meteobridge,2013-05-10 09:02:00,
2013-05-10 03:06:00,56.8,35.8,29.91,SSE,168,4.9,10.1,45,0.00,,,0.00,meteobridge,2013-05-10 09:06:00,
2013-05-10 03:12:00,56.8,35.8,29.90,East,90,4.9,4.9,45,0.00,,,0.00,meteobridge,2013-05-10 09:12:00,
2013-05-10 03:17:00,56.7,36.1,29.91,SE,126,4.0,6.9,46,0.00,,,0.00,meteobridge,2013-05-10 09:17:00,
2013-05-10 03:22:00,56.7,36.1,29.91,SE,138,2.9,8.1,46,0.00,,,0.00,meteobridge,2013-05-10 09:22:00,
2013-05-10 03:27:00,56.7,36.1,29.91,East,98,4.9,6.0,46,0.00,,,0.00,meteobridge,2013-05-10 09:27:00,
2013-05-10 03:32:00,56.5,36.0,29.91,East,89,4.9,4.9,46,0.00,,,0.00,meteobridge,2013-05-10 09:32:00,
2013-05-10 03:37:00,56.5,36.0,29.91,ESE,111,2.0,4.9,46,0.00,,,0.00,meteobridge,2013-05-10 09:37:00,
2013-05-10 03:42:00,56.3,35.8,29.91,East,84,2.0,4.0,46,0.00,,,0.00,meteobridge,2013-05-10 09:42:00,
2013-05-10 03:47:00,56.3,35.8,29.91,ESE,116,4.9,6.9,46,0.00,,,0.00,meteobridge,2013-05-10 09:47:00,
2013-05-10 03:52:00,56.3,35.8,29.91,SSE,159,0.9,2.9,46,0.00,,,0.00,meteobridge,2013-05-10 09:52:00,
2013-05-10 03:57:00,56.1,35.6,29.91,East,84,0.0,4.0,46,0.00,,,0.00,meteobridge,2013-05-10 09:57:00,
2013-05-10 04:02:00,55.8,35.8,29.91,SSE,148,0.9,2.9,47,0.00,,,0.00,meteobridge,2013-05-10 10:02:00,
2013-05-10 04:07:00,55.4,35.4,29.91,East,82,0.0,0.9,47,0.00,,,0.00,meteobridge,2013-05-10 10:07:00,
2013-05-10 04:12:00,55.2,36.0,29.91,NNE,24,0.0,2.0,48,0.00,,,0.00,meteobridge,2013-05-10 10:12:00,
2013-05-10 04:17:00,55.2,35.4,29.91,NNE,17,0.0,0.9,47,0.00,,,0.00,meteobridge,2013-05-10 10:17:00,
2013-05-10 04:23:00,54.7,34.9,29.91,NNE,17,0.0,0.0,47,0.00,,,0.00,meteobridge,2013-05-10 10:23:00,
2013-05-10 04:28:00,54.0,34.7,29.91,NNE,17,0.0,0.9,48,0.00,,,0.00,meteobridge,2013-05-10 10:28:00,
2013-05-10 04:33:00,53.4,34.7,29.91,NNE,17,0.0,0.0,49,0.00,,,0.00,meteobridge,2013-05-10 10:33:00,
2013-05-10 04:38:00,53.1,34.9,29.91,NNE,17,0.0,2.0,50,0.00,,,0.00,meteobridge,2013-05-10 10:38:00,
2013-05-10 04:43:00,52.9,34.7,29.91,NNE,17,0.0,0.0,50,0.00,,,0.00,meteobridge,2013-05-10 10:43:00,
2013-05-10 04:48:00,52.5,34.9,29.91,NNE,17,0.0,0.0,51,0.00,,,0.00,meteobridge,2013-05-10 10:48:00,
2013-05-10 04:53:00,52.0,34.9,29.91,NNE,16,0.0,0.9,52,0.00,,,0.00,meteobridge,2013-05-10 10:53:00,
2013-05-10 04:58:00,51.8,34.7,29.91,NNE,16,0.0,2.0,52,0.00,,,0.00,meteobridge,2013-05-10 10:58:00,
2013-05-10 05:04:00,51.6,35.1,29.92,NNE,16,0.0,2.0,53,0.00,,,0.00,meteobridge,2013-05-10 11:04:00,
2013-05-10 05:09:00,51.6,35.1,29.92,NNE,16,0.0,0.0,53,0.00,,,0.00,meteobridge,2013-05-10 11:09:00,
2013-05-10 05:15:00,51.1,35.1,29.92,NNE,16,0.0,0.0,54,0.00,,,0.00,meteobridge,2013-05-10 11:15:00,
2013-05-10 05:20:00,51.1,35.4,29.92,NW,311,0.0,0.9,55,0.00,,,0.00,meteobridge,2013-05-10 11:20:00,
2013-05-10 05:25:00,51.1,35.4,29.92,NW,324,0.0,0.0,55,0.00,,,0.00,meteobridge,2013-05-10 11:25:00,
2013-05-10 05:30:00,51.4,35.8,29.92,East,84,0.0,0.9,55,0.00,,,0.00,meteobridge,2013-05-10 11:30:00,
2013-05-10 05:35:00,51.6,35.6,29.92,East,84,0.0,0.9,54,0.00,,,0.00,meteobridge,2013-05-10 11:35:00,
2013-05-10 05:40:00,51.3,35.6,29.92,East,84,0.0,0.9,55,0.00,,,0.00,meteobridge,2013-05-10 11:40:00,
2013-05-10 05:46:00,50.5,35.4,29.93,East,84,0.0,0.0,56,0.00,,,0.00,meteobridge,2013-05-10 11:46:00,
2013-05-10 05:51:00,50.4,35.8,29.93,East,84,0.0,0.0,57,0.00,,,0.00,meteobridge,2013-05-10 11:51:00,
2013-05-10 05:56:00,50.5,36.0,29.93,East,84,0.0,0.0,57,0.00,,,0.00,meteobridge,2013-05-10 11:56:00,
2013-05-10 06:01:00,50.9,35.8,29.93,East,84,0.0,0.0,56,0.00,,,0.00,meteobridge,2013-05-10 12:01:00,
2013-05-10 06:06:00,50.7,35.6,29.93,East,84,0.9,0.9,56,0.00,,,0.00,meteobridge,2013-05-10 12:06:00,
2013-05-10 06:11:00,50.5,35.4,29.93,East,84,0.0,0.9,56,0.00,,,0.00,meteobridge,2013-05-10 12:11:00,
2013-05-10 06:16:00,50.4,35.2,29.93,East,84,0.0,0.9,56,0.00,,,0.00,meteobridge,2013-05-10 12:16:00,
2013-05-10 06:22:00,49.6,35.4,29.93,East,84,0.0,0.0,58,0.00,,,0.00,meteobridge,2013-05-10 12:22:00,
2013-05-10 06:27:00,49.5,35.2,29.93,East,84,2.0,2.0,58,0.00,,,0.00,meteobridge,2013-05-10 12:27:00,
2013-05-10 06:32:00,50.4,36.1,29.94,NE,38,0.0,6.0,58,0.00,,,0.00,meteobridge,2013-05-10 12:32:00,
2013-05-10 06:37:00,52.0,36.3,29.94,SE,143,0.9,4.0,55,0.00,,,0.00,meteobridge,2013-05-10 12:37:00,
2013-05-10 06:42:00,52.3,36.7,29.94,East,82,2.0,6.9,55,0.00,,,0.00,meteobridge,2013-05-10 12:42:00,
2013-05-10 06:47:00,52.5,36.3,29.94,NNE,26,2.9,8.9,54,0.00,,,0.00,meteobridge,2013-05-10 12:47:00,
2013-05-10 06:52:00,52.9,36.7,29.94,NE,38,0.9,8.1,54,0.00,,,0.00,meteobridge,2013-05-10 12:52:00,
2013-05-10 06:57:00,52.9,36.7,29.94,ESE,122,0.9,2.9,54,0.00,,,0.00,meteobridge,2013-05-10 12:57:00,
2013-05-10 07:02:00,53.1,36.3,29.95,ENE,69,4.0,8.1,53,0.00,,,0.00,meteobridge,2013-05-10 13:02:00,
2013-05-10 07:07:00,53.1,36.9,29.95,SE,130,0.0,4.0,54,0.00,,,0.00,meteobridge,2013-05-10 13:07:00,
2013-05-10 07:12:00,53.2,36.5,29.95,ESE,108,0.9,6.0,53,0.00,,,0.00,meteobridge,2013-05-10 13:12:00,
2013-05-10 07:17:00,53.4,36.7,29.95,ESE,114,0.0,8.9,53,0.00,,,0.00,meteobridge,2013-05-10 13:17:00,
2013-05-10 07:22:00,53.8,36.5,29.96,East,94,6.0,8.9,52,0.00,,,0.00,meteobridge,2013-05-10 13:22:00,
2013-05-10 07:27:00,53.8,36.5,29.96,SSE,156,2.9,11.0,52,0.00,,,0.00,meteobridge,2013-05-10 13:27:00,
2013-05-10 07:33:00,54.1,36.3,29.96,East,93,0.9,8.1,51,0.00,,,0.00,meteobridge,2013-05-10 13:33:00,
2013-05-10 07:38:00,54.3,36.1,29.96,ESE,108,2.9,10.1,50,0.00,,,0.00,meteobridge,2013-05-10 13:38:00,
2013-05-10 07:43:00,54.7,36.0,29.96,NE,34,6.9,11.0,49,0.00,,,0.00,meteobridge,2013-05-10 13:43:00,
2013-05-10 07:48:00,54.9,35.6,29.96,SE,134,4.9,17.9,48,0.00,,,0.00,meteobridge,2013-05-10 13:48:00,
2013-05-10 07:53:00,55.2,36.0,29.96,SSE,162,6.9,8.9,48,0.00,,,0.00,meteobridge,2013-05-10 13:53:00,
2013-05-10 07:58:00,55.8,35.8,29.96,SE,132,6.0,6.9,47,0.00,,,0.00,meteobridge,2013-05-10 13:58:00,
2013-05-10 08:03:00,55.9,35.4,29.96,East,98,6.0,14.1,46,0.00,,,0.00,meteobridge,2013-05-10 14:03:00,
2013-05-10 08:08:00,55.9,35.4,29.96,ESE,113,2.9,11.0,46,0.00,,,0.00,meteobridge,2013-05-10 14:08:00,
2013-05-10 08:13:00,56.5,36.0,29.96,East,98,4.9,10.1,46,0.00,,,0.00,meteobridge,2013-05-10 14:13:00,
2013-05-10 08:18:00,56.8,35.8,29.96,NNE,32,2.9,8.9,45,0.00,,,0.00,meteobridge,2013-05-10 14:18:00,
2013-05-10 08:23:00,56.8,35.8,29.97,ESE,107,4.0,8.9,45,0.00,,,0.00,meteobridge,2013-05-10 14:23:00,
2013-05-10 08:28:00,57.2,35.4,29.96,SE,130,6.0,8.9,44,0.00,,,0.00,meteobridge,2013-05-10 14:28:00,
2013-05-10 08:33:00,57.6,35.8,29.96,ESE,119,4.0,10.1,44,0.00,,,0.00,meteobridge,2013-05-10 14:33:00,
2013-05-10 08:38:00,57.7,35.4,29.96,East,84,2.9,8.1,43,0.00,,,0.00,meteobridge,2013-05-10 14:38:00,
2013-05-10 08:43:00,58.3,36.0,29.96,ESE,117,4.9,8.1,43,0.00,,,0.00,meteobridge,2013-05-10 14:43:00,
2013-05-10 08:48:00,58.5,35.4,29.96,ENE,78,4.9,13.0,42,0.00,,,0.00,meteobridge,2013-05-10 14:48:00,
2013-05-10 08:53:00,58.6,35.6,29.96,East,90,2.0,8.1,42,0.00,,,0.00,meteobridge,2013-05-10 14:53:00,
2013-05-10 08:58:00,59.5,36.5,29.96,SE,132,2.0,6.0,42,0.00,,,0.00,meteobridge,2013-05-10 14:58:00,
2013-05-10 09:03:00,60.1,35.6,29.96,SSE,161,8.9,16.1,40,0.00,,,0.00,meteobridge,2013-05-10 15:03:00,
2013-05-10 09:08:00,59.7,36.0,29.96,ESE,110,10.1,10.1,41,0.00,,,0.00,meteobridge,2013-05-10 15:08:00,
2013-05-10 09:13:00,59.9,36.1,29.96,ENE,61,4.9,6.9,41,0.00,,,0.00,meteobridge,2013-05-10 15:13:00,
2013-05-10 09:18:00,60.1,35.6,29.96,ESE,117,6.9,8.1,40,0.00,,,0.00,meteobridge,2013-05-10 15:18:00,
2013-05-10 09:23:00,60.1,35.6,29.96,East,90,2.9,8.9,40,0.00,,,0.00,meteobridge,2013-05-10 15:23:00,
2013-05-10 09:28:00,60.4,36.0,29.96,ESE,119,2.0,8.9,40,0.00,,,0.00,meteobridge,2013-05-10 15:28:00,
2013-05-10 09:33:00,60.8,35.6,29.96,SE,128,4.9,10.1,39,0.00,,,0.00,meteobridge,2013-05-10 15:33:00,
2013-05-10 09:38:00,61.0,35.8,29.96,South,172,4.0,8.9,39,0.00,,,0.00,meteobridge,2013-05-10 15:38:00,
2013-05-10 09:43:00,62.1,36.1,29.96,SE,136,4.0,10.1,38,0.00,,,0.00,meteobridge,2013-05-10 15:43:00,
2013-05-10 09:48:00,62.1,35.4,29.96,SE,138,6.0,10.1,37,0.00,,,0.00,meteobridge,2013-05-10 15:48:00,
2013-05-10 09:53:00,61.5,35.6,29.96,ESE,117,2.0,6.0,38,0.00,,,0.00,meteobridge,2013-05-10 15:53:00,
2013-05-10 09:58:00,61.9,36.0,29.96,NNE,32,6.0,11.0,38,0.00,,,0.00,meteobridge,2013-05-10 15:58:00,
2013-05-10 10:03:00,61.0,35.8,29.96,NNE,12,2.0,6.9,39,0.00,,,0.00,meteobridge,2013-05-10 16:03:00,
2013-05-10 10:08:00,62.2,35.6,29.96,East,96,2.0,2.9,37,0.00,,,0.00,meteobridge,2013-05-10 16:08:00,
2013-05-10 10:13:00,61.3,35.6,29.96,NNE,17,0.0,2.9,38,0.00,,,0.00,meteobridge,2013-05-10 16:13:00,
2013-05-10 10:18:00,63.7,36.9,29.96,North,0,2.9,4.9,37,0.00,,,0.00,meteobridge,2013-05-10 16:18:00,
2013-05-10 10:23:00,63.9,35.6,29.96,NW,323,2.0,2.9,35,0.00,,,0.00,meteobridge,2013-05-10 16:23:00,
2013-05-10 10:28:00,61.5,35.1,29.96,WNW,286,0.9,2.0,37,0.00,,,0.00,meteobridge,2013-05-10 16:28:00,
2013-05-10 10:33:00,61.2,36.0,29.96,NW,326,2.9,4.0,39,0.00,,,0.00,meteobridge,2013-05-10 16:33:00,
2013-05-10 10:39:00,62.2,35.6,29.96,North,355,0.9,2.9,37,0.00,,,0.00,meteobridge,2013-05-10 16:39:00,
2013-05-10 10:44:00,62.1,36.1,29.96,NNW,347,0.0,2.0,38,0.00,,,0.00,meteobridge,2013-05-10 16:44:00,
2013-05-10 10:49:00,61.9,35.2,29.96,NW,320,0.9,2.0,37,0.00,,,0.00,meteobridge,2013-05-10 16:49:00,
2013-05-10 10:54:00,62.1,36.1,29.96,North,5,2.0,4.0,38,0.00,,,0.00,meteobridge,2013-05-10 16:54:00,
2013-05-10 10:59:00,62.1,36.1,29.96,ESE,123,2.9,4.9,38,0.00,,,0.00,meteobridge,2013-05-10 16:59:00,
2013-05-10 11:04:00,62.2,36.3,29.96,ESE,104,4.0,4.9,38,0.00,,,0.00,meteobridge,2013-05-10 17:04:00,
2013-05-10 11:09:00,62.1,36.1,29.96,East,80,2.9,8.9,38,0.00,,,0.00,meteobridge,2013-05-10 17:09:00,
2013-05-10 11:14:00,62.1,36.1,29.96,East,82,6.0,8.9,38,0.00,,,0.00,meteobridge,2013-05-10 17:14:00,
2013-05-10 11:19:00,62.4,36.5,29.96,North,355,2.0,4.9,38,0.00,,,0.00,meteobridge,2013-05-10 17:19:00,
2013-05-10 11:24:00,63.9,36.3,29.96,ESE,120,4.0,10.1,36,0.00,,,0.00,meteobridge,2013-05-10 17:24:00,
2013-05-10 11:29:00,63.3,36.7,29.96,ENE,63,0.9,4.0,37,0.00,,,0.00,meteobridge,2013-05-10 17:29:00,
2013-05-10 11:34:00,64.2,37.4,29.96,ENE,77,2.9,4.0,37,0.00,,,0.00,meteobridge,2013-05-10 17:34:00,
2013-05-10 11:39:00,65.5,37.8,29.96,NNE,17,8.1,8.9,36,0.00,,,0.00,meteobridge,2013-05-10 17:39:00,
2013-05-10 11:44:00,65.8,36.7,29.96,SSE,149,6.0,13.0,34,0.00,,,0.00,meteobridge,2013-05-10 17:44:00,
2013-05-10 11:49:00,66.7,37.4,29.96,ENE,71,2.9,8.9,34,0.00,,,0.00,meteobridge,2013-05-10 17:49:00,
2013-05-10 11:54:00,66.7,36.7,29.96,NE,34,4.0,11.0,33,0.00,,,0.00,meteobridge,2013-05-10 17:54:00,
2013-05-10 11:59:00,65.8,36.7,29.96,SSE,167,4.0,6.9,34,0.00,,,0.00,meteobridge,2013-05-10 17:59:00,
2013-05-10 12:04:00,65.1,36.9,29.96,East,94,6.0,12.1,35,0.00,,,0.00,meteobridge,2013-05-10 18:04:00,
2013-05-10 12:09:00,64.0,37.2,29.96,East,92,6.0,8.1,37,0.00,,,0.00,meteobridge,2013-05-10 18:09:00,
2013-05-10 12:14:00,63.7,36.1,29.96,NE,55,4.0,13.0,36,0.00,,,0.00,meteobridge,2013-05-10 18:14:00,
2013-05-10 12:19:00,63.9,35.6,29.95,East,92,6.9,11.0,35,0.00,,,0.00,meteobridge,2013-05-10 18:19:00,
2013-05-10 12:24:00,65.1,36.1,29.95,ESE,121,4.0,8.9,34,0.00,,,0.00,meteobridge,2013-05-10 18:24:00,
2013-05-10 12:29:00,65.7,35.8,29.95,ESE,115,2.9,6.0,33,0.00,,,0.00,meteobridge,2013-05-10 18:29:00,
2013-05-10 12:34:00,65.5,35.6,29.94,NE,46,6.0,12.1,33,0.00,,,0.00,meteobridge,2013-05-10 18:34:00,
2013-05-10 12:39:00,66.9,36.1,29.94,NNE,22,4.9,6.9,32,0.00,,,0.00,meteobridge,2013-05-10 18:39:00,
2013-05-10 12:44:00,66.6,35.8,29.94,ENE,75,2.0,13.0,32,0.00,,,0.00,meteobridge,2013-05-10 18:44:00,
2013-05-10 12:49:00,66.4,34.9,29.94,SE,132,8.9,8.9,31,0.00,,,0.00,meteobridge,2013-05-10 18:49:00,
2013-05-10 12:54:00,65.8,35.2,29.93,East,99,6.0,8.1,32,0.00,,,0.00,meteobridge,2013-05-10 18:54:00,
2013-05-10 12:59:00,65.8,35.2,29.93,ESE,105,2.9,12.1,32,0.00,,,0.00,meteobridge,2013-05-10 18:59:00,
2013-05-10 13:04:00,66.0,35.2,29.93,SE,130,2.9,6.9,32,0.00,,,0.00,meteobridge,2013-05-10 19:04:00,
2013-05-10 13:09:00,67.3,35.6,29.93,ENE,67,2.9,6.0,31,0.00,,,0.00,meteobridge,2013-05-10 19:09:00,
2013-05-10 13:14:00,66.7,34.3,29.93,East,81,2.0,8.1,30,0.00,,,0.00,meteobridge,2013-05-10 19:14:00,
2013-05-10 13:19:00,67.5,35.8,29.93,SSE,151,0.0,10.1,31,0.00,,,0.00,meteobridge,2013-05-10 19:19:00,
2013-05-10 13:24:00,67.5,34.2,29.93,ESE,110,4.0,6.9,29,0.00,,,0.00,meteobridge,2013-05-10 19:24:00,
2013-05-10 13:29:00,66.7,34.3,29.92,East,98,2.0,6.9,30,0.00,,,0.00,meteobridge,2013-05-10 19:29:00,
2013-05-10 13:34:00,65.8,33.6,29.92,ESE,107,0.9,4.0,30,0.00,,,0.00,meteobridge,2013-05-10 19:34:00,
2013-05-10 13:39:00,65.7,33.4,29.92,NE,46,0.9,6.0,30,0.00,,,0.00,meteobridge,2013-05-10 19:39:00,
2013-05-10 13:44:00,65.1,32.9,29.91,South,175,0.9,2.9,30,0.00,,,0.00,meteobridge,2013-05-10 19:44:00,
2013-05-10 13:49:00,65.8,33.6,29.91,SSE,164,0.9,4.9,30,0.00,,,0.00,meteobridge,2013-05-10 19:49:00,
2013-05-10 13:54:00,69.3,33.8,29.91,NNE,13,2.9,4.9,27,0.00,,,0.00,meteobridge,2013-05-10 19:54:00,
2013-05-10 13:59:00,68.7,33.4,29.91,South,189,2.0,4.9,27,0.00,,,0.00,meteobridge,2013-05-10 19:59:00,
2013-05-10 14:04:00,68.4,33.1,29.91,NE,34,2.0,6.0,27,0.00,,,0.00,meteobridge,2013-05-10 20:04:00,
2013-05-10 14:09:00,66.6,33.3,29.91,East,87,0.9,2.9,29,0.00,,,0.00,meteobridge,2013-05-10 20:09:00,
2013-05-10 14:14:00,66.7,34.3,29.91,North,355,2.0,8.9,30,0.00,,,0.00,meteobridge,2013-05-10 20:14:00,
2013-05-10 14:19:00,66.7,35.1,29.91,NE,48,2.0,4.9,31,0.00,,,0.00,meteobridge,2013-05-10 20:19:00,
2013-05-10 14:24:00,67.5,34.2,29.91,North,0,4.0,8.1,29,0.00,,,0.00,meteobridge,2013-05-10 20:24:00,
2013-05-10 14:29:00,68.2,33.8,29.91,NNE,14,0.0,6.9,28,0.00,,,0.00,meteobridge,2013-05-10 20:29:00,
2013-05-10 14:34:00,68.5,34.2,29.91,ESE,113,6.9,8.1,28,0.00,,,0.00,meteobridge,2013-05-10 20:34:00,
2013-05-10 14:39:00,67.5,36.5,29.91,North,11,2.0,6.0,32,0.00,,,0.00,meteobridge,2013-05-10 20:39:00,
2013-05-10 14:44:00,64.9,43.7,29.91,East,96,6.0,10.1,46,0.00,,,0.00,meteobridge,2013-05-10 20:44:00,
2013-05-10 14:49:00,62.6,41.5,29.91,SE,124,6.9,8.9,46,0.00,,,0.00,meteobridge,2013-05-10 20:49:00,
2013-05-10 14:54:00,61.0,41.2,29.91,SE,130,2.9,11.0,48,0.00,,,0.00,meteobridge,2013-05-10 20:54:00,
2013-05-10 14:59:00,60.6,40.8,29.92,ENE,74,2.0,8.1,48,0.00,,,0.00,meteobridge,2013-05-10 20:59:00,
2013-05-10 15:04:00,60.6,36.9,29.93,East,96,2.9,12.1,41,0.00,,,0.00,meteobridge,2013-05-10 21:04:00,
2013-05-10 15:09:00,60.4,37.2,29.93,East,92,2.9,6.9,42,0.00,,,0.00,meteobridge,2013-05-10 21:09:00,
2013-05-10 15:14:00,59.7,36.5,29.94,ENE,72,0.0,4.9,42,0.00,,,0.00,meteobridge,2013-05-10 21:14:00,
2013-05-10 15:19:00,59.9,38.5,29.93,East,100,0.0,2.0,45,0.00,,,0.00,meteobridge,2013-05-10 21:19:00,
2013-05-10 15:24:00,60.1,37.6,29.93,ESE,103,0.9,2.9,43,0.00,,,0.00,meteobridge,2013-05-10 21:24:00,
2013-05-10 15:29:00,60.1,36.9,29.93,SSE,152,2.9,2.9,42,0.00,,,0.00,meteobridge,2013-05-10 21:29:00,
2013-05-10 15:34:00,60.1,37.6,29.93,SE,144,0.9,4.0,43,0.00,,,0.00,meteobridge,2013-05-10 21:34:00,
2013-05-10 15:39:00,60.1,37.6,29.93,SSE,162,4.0,4.9,43,0.00,,,0.00,meteobridge,2013-05-10 21:39:00,
2013-05-10 15:44:00,59.9,37.4,29.93,SSW,200,4.0,4.0,43,0.00,,,0.00,meteobridge,2013-05-10 21:44:00,
2013-05-10 15:50:00,59.7,37.2,29.93,SW,223,2.9,4.9,43,0.00,,,0.00,meteobridge,2013-05-10 21:50:00,
2013-05-10 15:55:00,59.9,37.4,29.93,WSW,240,2.0,4.0,43,0.00,,,0.00,meteobridge,2013-05-10 21:55:00,
2013-05-10 15:58:00,59.9,37.4,29.93,SW,229,0.0,0.0,43,0.00,,,0.00,meteobridge,2013-05-10 21:58:00,
2013-05-10 15:59:00,60.1,37.6,29.93,SW,229,0.0,0.0,43,0.00,,,0.00,meteobridge,2013-05-10 21:59:00,
2013-05-10 16:05:00,60.4,37.8,29.93,SSE,163,2.9,4.0,43,0.00,,,0.00,meteobridge,2013-05-10 22:05:00,
2013-05-10 16:10:00,60.8,37.6,29.93,SSE,168,2.0,2.9,42,0.00,,,0.00,meteobridge,2013-05-10 22:10:00,
2013-05-10 16:15:00,60.8,37.6,29.93,WSW,237,0.9,4.0,42,0.00,,,0.00,meteobridge,2013-05-10 22:15:00,
2013-05-10 16:20:00,61.2,37.2,29.93,SE,134,0.0,2.9,41,0.00,,,0.00,meteobridge,2013-05-10 22:20:00,
2013-05-10 16:25:00,61.3,36.9,29.93,ESE,103,2.9,4.9,40,0.00,,,0.00,meteobridge,2013-05-10 22:25:00,
2013-05-10 16:30:00,61.5,37.0,29.93,SSE,148,2.0,4.0,40,0.00,,,0.00,meteobridge,2013-05-10 22:30:00,
2013-05-10 16:35:00,62.1,37.4,29.93,SE,138,2.0,2.9,40,0.00,,,0.00,meteobridge,2013-05-10 22:35:00,
2013-05-10 16:40:00,62.8,37.4,29.92,SSE,161,0.9,4.0,39,0.00,,,0.00,meteobridge,2013-05-10 22:40:00,
2013-05-10 16:45:00,63.0,37.6,29.93,SE,144,2.9,2.9,39,0.00,,,0.00,meteobridge,2013-05-10 22:45:00,
2013-05-10 16:50:00,64.0,37.2,29.92,South,169,2.0,6.9,37,0.00,,,0.00,meteobridge,2013-05-10 22:50:00,
2013-05-10 16:55:00,64.8,37.9,29.92,ESE,113,4.0,6.0,37,0.00,,,0.00,meteobridge,2013-05-10 22:55:00,
2013-05-10 17:00:00,65.1,37.6,29.92,SSW,196,2.0,4.0,36,0.00,,,0.00,meteobridge,2013-05-10 23:00:00,
2013-05-10 17:05:00,66.4,37.2,29.92,South,171,2.9,4.9,34,0.00,,,0.00,meteobridge,2013-05-10 23:05:00,
2013-05-10 17:10:00,66.6,36.5,29.91,WSW,238,4.9,4.9,33,0.00,,,0.00,meteobridge,2013-05-10 23:10:00,
2013-05-10 17:15:00,66.6,35.8,29.91,SE,146,2.0,4.9,32,0.00,,,0.00,meteobridge,2013-05-10 23:15:00,
2013-05-10 17:20:00,67.5,37.4,29.91,South,174,6.0,6.0,33,0.00,,,0.00,meteobridge,2013-05-10 23:20:00,
2013-05-10 17:25:00,66.6,35.8,29.91,SSE,151,4.0,6.9,32,0.00,,,0.00,meteobridge,2013-05-10 23:25:00,
2013-05-10 17:30:00,66.2,35.4,29.91,SE,142,4.9,4.9,32,0.00,,,0.00,meteobridge,2013-05-10 23:30:00,
2013-05-10 17:35:00,66.6,34.2,29.91,SSE,150,2.0,6.9,30,0.00,,,0.00,meteobridge,2013-05-10 23:35:00,
2013-05-10 17:40:00,66.7,34.3,29.91,SW,219,2.9,6.9,30,0.00,,,0.00,meteobridge,2013-05-10 23:40:00,
2013-05-10 17:46:00,66.7,33.4,29.91,South,188,0.9,6.0,29,0.00,,,0.00,meteobridge,2013-05-10 23:46:00,
2013-05-10 17:51:00,66.7,32.5,29.91,South,178,2.0,8.1,28,0.00,,,0.00,meteobridge,2013-05-10 23:51:00,
2013-05-10 17:56:00,66.6,35.1,29.91,ESE,104,0.9,8.1,31,0.00,,,0.00,meteobridge,2013-05-10 23:56:00,
2013-05-10 18:01:00,65.8,34.3,29.91,South,169,2.0,4.9,31,0.00,,,0.00,meteobridge,2013-05-11 00:01:00,
2013-05-10 18:06:00,65.8,33.6,29.91,SE,128,4.9,6.9,30,0.00,,,0.00,meteobridge,2013-05-11 00:06:00,
2013-05-10 18:11:00,65.7,34.2,29.92,WSW,240,2.9,4.9,31,0.00,,,0.00,meteobridge,2013-05-11 00:11:00,
2013-05-10 18:16:00,65.5,34.9,29.92,SSE,157,6.9,10.1,32,0.00,,,0.00,meteobridge,2013-05-11 00:16:00,
2013-05-10 18:21:00,65.8,32.7,29.92,ESE,109,2.0,10.1,29,0.00,,,0.00,meteobridge,2013-05-11 00:21:00,
2013-05-10 18:26:00,66.4,33.1,29.93,East,90,8.9,10.1,29,0.00,,,0.00,meteobridge,2013-05-11 00:26:00,
2013-05-10 18:31:00,66.6,32.4,29.92,SE,136,6.9,10.1,28,0.00,,,0.00,meteobridge,2013-05-11 00:31:00,
2013-05-10 18:36:00,66.4,32.4,29.93,SSE,159,2.9,14.1,28,0.00,,,0.00,meteobridge,2013-05-11 00:36:00,
2013-05-10 18:41:00,66.4,33.1,29.93,ESE,115,2.9,10.1,29,0.00,,,0.00,meteobridge,2013-05-11 00:41:00,
2013-05-10 18:46:00,66.0,32.9,29.93,East,84,4.9,8.1,29,0.00,,,0.00,meteobridge,2013-05-11 00:46:00,
2013-05-10 18:51:00,65.5,34.0,29.93,East,86,8.1,11.0,31,0.00,,,0.00,meteobridge,2013-05-11 00:51:00,
2013-05-10 18:56:00,64.9,35.1,29.94,SE,145,11.0,12.1,33,0.00,,,0.00,meteobridge,2013-05-11 00:56:00,
2013-05-10 19:01:00,64.6,34.9,29.94,ESE,121,4.0,8.9,33,0.00,,,0.00,meteobridge,2013-05-11 01:01:00,
2013-05-10 19:06:00,64.2,36.0,29.95,SE,132,8.1,11.0,35,0.00,,,0.00,meteobridge,2013-05-11 01:06:00,
2013-05-10 19:11:00,64.0,35.8,29.95,SE,136,10.1,10.1,35,0.00,,,0.00,meteobridge,2013-05-11 01:11:00,
2013-05-10 19:16:00,63.9,35.6,29.96,SSE,165,6.9,8.1,35,0.00,,,0.00,meteobridge,2013-05-11 01:16:00,
2013-05-10 19:21:00,63.3,36.7,29.96,ESE,115,4.0,11.0,37,0.00,,,0.00,meteobridge,2013-05-11 01:21:00,
2013-05-10 19:26:00,63.1,37.0,29.97,ESE,122,4.9,10.1,38,0.00,,,0.00,meteobridge,2013-05-11 01:26:00,
2013-05-10 19:31:00,63.0,37.0,29.98,SE,141,6.9,13.0,38,0.00,,,0.00,meteobridge,2013-05-11 01:31:00,
2013-05-10 19:36:00,62.8,36.9,29.98,SE,124,8.1,11.0,38,0.00,,,0.00,meteobridge,2013-05-11 01:36:00,
2013-05-10 19:42:00,62.4,37.2,29.98,SE,128,6.0,8.9,39,0.00,,,0.00,meteobridge,2013-05-11 01:42:00,
2013-05-10 19:47:00,62.2,37.0,29.99,SE,124,11.0,16.1,39,0.00,,,0.00,meteobridge,2013-05-11 01:47:00,
2013-05-10 19:52:00,61.3,38.7,30.00,South,177,11.0,11.0,43,0.00,,,0.00,meteobridge,2013-05-11 01:52:00,
2013-05-10 19:57:00,60.3,38.8,30.00,SSE,163,6.0,8.1,45,0.00,,,0.00,meteobridge,2013-05-11 01:57:00,
2013-05-10 20:02:00,59.4,37.9,30.01,SSW,199,2.9,10.1,45,0.00,,,0.00,meteobridge,2013-05-11 02:02:00,
2013-05-10 20:07:00,58.8,38.1,30.01,South,190,6.9,12.1,46,0.00,,,0.00,meteobridge,2013-05-11 02:07:00,
2013-05-10 20:12:00,58.6,38.5,30.02,SW,215,6.0,8.9,47,0.00,,,0.00,meteobridge,2013-05-11 02:12:00,
2013-05-10 20:17:00,58.5,39.4,30.02,South,179,6.0,8.1,49,0.00,,,0.00,meteobridge,2013-05-11 02:17:00,
2013-05-10 20:22:00,58.1,39.0,30.03,SSW,213,2.9,11.0,49,0.00,,,0.00,meteobridge,2013-05-11 02:22:00,
2013-05-10 20:27:00,57.9,38.8,30.03,SW,234,2.9,8.9,49,0.00,,,0.00,meteobridge,2013-05-11 02:27:00,
2013-05-10 20:32:00,57.9,38.8,30.03,SE,136,4.0,6.9,49,0.00,,,0.00,meteobridge,2013-05-11 02:32:00,
2013-05-10 20:37:00,57.7,38.7,30.03,SSW,213,0.9,6.9,49,0.00,,,0.00,meteobridge,2013-05-11 02:37:00,
2013-05-10 20:42:00,57.7,38.7,30.04,SSW,207,4.0,8.9,49,0.00,,,0.00,meteobridge,2013-05-11 02:42:00,
2013-05-10 20:47:00,57.7,38.7,30.04,SSE,153,2.0,4.0,49,0.00,,,0.00,meteobridge,2013-05-11 02:47:00,
2013-05-10 20:52:00,57.6,39.0,30.04,SSW,206,2.0,6.0,50,0.00,,,0.00,meteobridge,2013-05-11 02:52:00,
2013-05-10 20:57:00,57.4,38.8,30.05,SW,218,0.9,11.0,50,0.00,,,0.00,meteobridge,2013-05-11 02:57:00,
2013-05-10 21:02:00,57.0,39.0,30.05,SSE,154,8.9,8.9,51,0.00,,,0.00,meteobridge,2013-05-11 03:02:00,
2013-05-10 21:07:00,56.7,39.2,30.06,South,171,4.0,10.1,52,0.00,,,0.00,meteobridge,2013-05-11 03:07:00,
2013-05-10 21:12:00,56.3,39.4,30.06,SSE,163,6.0,10.1,53,0.00,,,0.00,meteobridge,2013-05-11 03:12:00,
2013-05-10 21:17:00,55.8,40.3,30.06,SSE,153,2.9,8.9,56,0.00,,,0.00,meteobridge,2013-05-11 03:17:00,
2013-05-10 21:22:00,55.2,42.1,30.07,SW,233,6.9,8.1,61,0.00,,,0.00,meteobridge,2013-05-11 03:22:00,
2013-05-10 21:27:00,54.7,42.3,30.07,SSE,161,8.9,8.9,63,0.00,,,0.00,meteobridge,2013-05-11 03:27:00,
2013-05-10 21:32:00,54.1,42.6,30.07,SSW,205,2.0,6.9,65,0.00,,,0.00,meteobridge,2013-05-11 03:32:00,
2013-05-10 21:37:00,54.0,42.8,30.07,SSE,159,4.9,6.9,66,0.00,,,0.00,meteobridge,2013-05-11 03:37:00,
2013-05-10 21:42:00,53.8,42.6,30.08,South,180,2.0,4.0,66,0.00,,,0.00,meteobridge,2013-05-11 03:42:00,
2013-05-10 21:47:00,53.6,42.4,30.08,SSW,211,4.0,6.0,66,0.00,,,0.00,meteobridge,2013-05-11 03:47:00,
2013-05-10 21:52:00,53.6,42.1,30.08,SSW,209,2.9,4.0,65,0.00,,,0.00,meteobridge,2013-05-11 03:52:00,
2013-05-10 21:57:00,53.4,41.9,30.09,SSE,156,2.9,8.1,65,0.00,,,0.00,meteobridge,2013-05-11 03:57:00,
2013-05-10 22:01:00,53.4,41.5,30.09,SSE,153,2.9,4.0,64,0.00,,,0.00,meteobridge,2013-05-11 04:01:00,
2013-05-10 22:02:00,53.4,41.5,30.09,SW,218,4.9,4.9,64,0.00,,,0.00,meteobridge,2013-05-11 04:02:00,
2013-05-10 22:03:00,53.4,41.5,30.09,SE,138,2.9,4.9,64,0.00,,,0.00,meteobridge,2013-05-11 04:03:00,
2013-05-10 22:08:00,53.4,41.5,30.10,SSW,202,0.0,4.0,64,0.00,,,0.00,meteobridge,2013-05-11 04:08:00,
2013-05-10 22:13:00,53.1,41.5,30.10,SSW,202,0.0,0.9,65,0.00,,,0.00,meteobridge,2013-05-11 04:13:00,
2013-05-10 22:18:00,52.9,41.9,30.10,SE,145,0.9,2.9,66,0.00,,,0.00,meteobridge,2013-05-11 04:18:00,
2013-05-10 22:23:00,52.5,41.5,30.10,SE,131,2.9,2.9,66,0.00,,,0.00,meteobridge,2013-05-11 04:23:00,
2013-05-10 22:28:00,52.5,41.5,30.11,SE,129,0.0,2.0,66,0.00,,,0.00,meteobridge,2013-05-11 04:28:00,
2013-05-10 22:33:00,52.3,41.7,30.11,SE,129,0.0,2.0,67,0.00,,,0.00,meteobridge,2013-05-11 04:33:00,
2013-05-10 22:38:00,52.3,41.4,30.11,East,98,0.9,2.0,66,0.00,,,0.00,meteobridge,2013-05-11 04:38:00,
2013-05-10 22:43:00,52.3,41.4,30.11,East,98,0.0,2.9,66,0.00,,,0.00,meteobridge,2013-05-11 04:43:00,
2013-05-10 22:48:00,52.3,41.4,30.11,ESE,113,2.9,2.9,66,0.00,,,0.00,meteobridge,2013-05-11 04:48:00,
2013-05-10 22:53:00,52.3,41.0,30.11,SE,124,0.9,2.9,65,0.00,,,0.00,meteobridge,2013-05-11 04:53:00,
2013-05-10 22:58:00,52.3,41.4,30.11,SE,137,0.0,2.0,66,0.00,,,0.00,meteobridge,2013-05-11 04:58:00,
2013-05-10 23:03:00,52.3,41.4,30.11,ESE,120,0.0,2.0,66,0.00,,,0.00,meteobridge,2013-05-11 05:03:00,
2013-05-10 23:08:00,52.3,41.4,30.11,ESE,113,0.0,0.9,66,0.00,,,0.00,meteobridge,2013-05-11 05:08:00,
2013-05-10 23:13:00,52.3,41.4,30.11,ESE,109,0.0,2.9,66,0.00,,,0.00,meteobridge,2013-05-11 05:13:00,
2013-05-10 23:18:00,52.2,41.2,30.12,ESE,109,0.0,0.9,66,0.00,,,0.00,meteobridge,2013-05-11 05:18:00,
2013-05-10 23:24:00,52.3,41.4,30.12,ENE,70,2.0,2.0,66,0.00,,,0.00,meteobridge,2013-05-11 05:24:00,
2013-05-10 23:29:00,52.3,41.4,30.12,ESE,104,0.0,2.0,66,0.00,,,0.00,meteobridge,2013-05-11 05:29:00,
2013-05-10 23:34:00,52.3,41.0,30.12,ESE,104,0.0,0.0,65,0.00,,,0.00,meteobridge,2013-05-11 05:34:00,
2013-05-10 23:39:00,52.3,41.4,30.12,ESE,104,0.0,0.0,66,0.00,,,0.00,meteobridge,2013-05-11 05:39:00,
2013-05-10 23:44:00,52.3,41.0,30.13,ESE,104,0.0,0.0,65,0.00,,,0.00,meteobridge,2013-05-11 05:44:00,
2013-05-10 23:50:00,52.3,41.0,30.13,ESE,104,0.0,0.9,65,0.00,,,0.00,meteobridge,2013-05-11 05:50:00,
2013-05-10 23:55:00,52.5,41.2,30.13,ESE,103,0.0,0.9,65,0.00,,,0.00,meteobridge,2013-05-11 05:55:00,